User: anonymous   Login
Location: Unspecified
(0.0000°N, 0.0000°E)
Time: 08:40:23
(UTC+00:00)
Language:

Radcal - Orbit

View from above orbital plane
View from above orbital plane
View from above satellite
View from above satellite

Ground track
Ground track

The orbit data is extracted from the following two-line orbital elements,

1 22698U 93041A   17293.59365641 +.00000059 +00000-0 +19090-4 0  9992
2 22698 089.5567 226.7622 0091338 083.0680 278.0892 14.23356147262399
Epoch (UTC): 20 October 2017 14:14:51
Eccentricity: 0.0091338
inclination: 89.5567°
perigee height: 748 km
apogee height: 880 km
right ascension of ascending node: 226.7622°
argument of perigee: 83.0680°
revolutions per day: 14.23356147
mean anomaly at epoch: 278.0892°
orbit number at epoch: 26239

The dashed part of the orbit path shows where the satellite is in the earth's shadow,  

DLR